Date,TemperatureHighF,TemperatureAvgF,TemperatureLowF,DewpointHighF,DewpointAvgF,DewpointLowF,HumidityHigh,HumidityAvg,HumidityLow,PressureMaxIn,PressureMinIn,WindSpeedMaxMPH,WindSpeedAvgMPH,GustSpeedMaxMPH,PrecipitationSumIn
2013-3-1,84.3,67.1,49.9,34.0,27.9,22.1,43,25,14,30.31,30.15,10,1,22,0.00
2013-3-2,82.9,64.0,47.4,40.4,34.4,28.6,53,35,17,30.21,30.08,5,0,12,0.00
2013-3-3,70.1,58.8,47.7,49.2,43.8,33.0,88,60,34,30.10,29.97,11,1,15,0.00
2013-3-4,66.3,53.5,44.5,51.4,46.8,42.0,94,79,53,30.10,30.00,6,1,12,0.00
2013-3-5,66.0,51.9,44.3,51.0,47.0,41.8,94,84,57,30.13,30.03,9,1,14,0.00
2013-3-6,55.6,50.3,44.2,49.7,46.0,41.7,93,86,63,30.15,30.01,4,0,10,0.00
2013-3-7,58.1,51.5,47.1,49.0,44.5,36.0,95,79,45,30.01,29.82,9,1,14,0.00
2013-3-8,56.6,49.3,42.9,46.4,43.3,39.7,95,81,61,30.03,29.78,8,1,15,0.00
2013-3-9,63.6,51.8,39.8,46.0,41.1,35.5,93,69,45,30.22,30.03,9,1,14,0.00
2013-3-10,74.8,57.3,41.9,40.8,33.3,24.2,75,46,16,30.29,30.17,10,1,18,0.00
2013-3-11,73.9,56.7,40.5,45.0,37.9,30.9,69,53,24,30.18,30.05,5,0,11,0.00
2013-3-12,78.7,59.2,42.7,49.5,42.1,36.8,81,56,24,30.09,30.01,7,0,10,0.00
2013-3-13,89.1,64.9,47.9,53.6,41.9,37.2,72,47,17,30.11,30.02,7,0,13,0.00
2013-3-14,82.6,64.4,48.2,53.2,45.2,39.5,73,52,30,30.08,30.00,6,0,10,0.00
2013-3-15,78.9,60.4,49.4,55.6,49.2,43.5,85,68,36,30.01,29.92,8,0,13,0.00
2013-3-16,65.1,54.2,46.4,54.2,49.4,44.8,99,85,66,29.99,29.88,4,0,10,0.00
2013-3-17,71.8,55.6,43.6,55.2,48.3,41.7,95,78,43,30.01,29.92,7,0,13,0.00
2013-3-18,62.9,52.7,44.3,51.8,47.7,42.4,95,84,66,30.09,29.98,6,0,11,0.00
2013-3-19,68.2,56.0,45.2,54.9,49.4,43.3,96,80,57,30.12,30.03,9,0,12,0.00
2013-3-20,70.2,59.2,50.5,54.7,49.8,47.7,92,73,49,30.09,29.94,9,0,12,0.00
2013-3-21,72.2,59.2,47.2,53.9,48.6,44.4,91,70,43,29.95,29.80,9,0,14,0.00
2013-3-22,74.0,59.2,43.1,47.9,38.3,20.8,90,50,23,29.90,29.78,9,0,13,0.00
2013-3-23,71.2,56.5,40.0,50.2,37.8,20.5,76,51,27,30.00,29.89,10,1,12,0.00
2013-3-24,75.2,57.6,42.5,51.0,42.0,33.0,90,58,33,30.02,29.90,6,0,12,0.00
2013-3-25,71.2,55.7,44.4,54.8,44.8,33.2,87,68,42,29.96,29.89,10,1,10,0.00
2013-3-26,69.8,56.3,44.2,52.2,47.5,41.5,92,74,50,29.96,29.90,7,1,12,0.00
2013-3-27,69.2,56.3,46.5,53.0,48.8,44.0,94,78,56,30.04,29.92,13,1,18,0.00
2013-3-28,71.4,56.1,45.6,55.7,49.7,43.4,95,81,56,30.08,30.01,7,1,15,0.00
2013-3-29,71.3,58.2,47.0,56.7,51.2,44.5,95,79,58,30.11,30.03,5,0,12,0.00
2013-3-30,72.8,58.9,52.1,55.5,50.8,46.0,94,77,48,30.12,30.04,9,1,14,0.00
2013-3-31,64.1,57.7,52.4,57.3,52.4,49.2,92,83,67,30.11,30.05,6,1,17,0.00